COSMOS 511

Satellite information

Favourite Embed

Satellite Type and Status

PAYLOADIN ORBIT

Key statistics

Satellite COSMOS 511 at a glance.

Uptime

19464

Days in orbit

Revolutions

≈ 12.4

Per day

Orbit

LEO

Low Earth Orbit

Inclination

74.0

Latest

Satellite identification and parameters

Extended collection of information and parameters for COSMOS 511.

Object identification

Identified? True

Debris? False

Object name: COSMOS 511

International designator: 1972-057H

Object number (NORAD): 6124

Object ID (CCSDS): 6124

Country: COMMONWEALTH OF INDEPENDENT STATES (CIS)

Current information (Y/N): Y

RCS size: MEDIUM

Orbital parameters

Period: 116.422 minutes

Inclination: 74.0274 deg

SMA: 7898.001 km

Apoapsis: 1544.736 km

Periapsis: 1494.997 km

RAAN: 188.053 deg

Eccentricy: 0.00314884

Argument of periapsis: 165.8219 deg

Mean anomaly: 219.0714 deg

Mean motion: 12.3687831 rev/day

Mean motion (dot): -0.00000008 rev/day2

B* drag term: 0.000053353113 1/REarth

Two-line elements (TLE)

Creation date: Nov. 1, 2025, 7:40 p.m.

Reference frame: TEME

Reference center: EARTH

Epoch: Nov. 1, 2025, 3:14 p.m. UTC

TLE line 0: 0 COSMOS 511

TLE line 1: 1 06124U 72057H 25305.63484376 -.00000008 00000-0 53353-4 0 9992

TLE line 2: 2 06124 74.0274 188.0530 0031488 165.8219 219.0714 12.36878310405989

Live tracking on map

Real-time ground track for satellite COSMOS 511.

In-orbit conjunctions

There are no conjunctions computed for COSMOS 511, at the moment. Check back to stay up to date, as we update our databases every day.

Go to all conjunctions

Associated space launch

Military communications satellites

COSMOS 511 was lifted into orbit during the mission ‘Kosmos-3M | Strela-1M 25-32’, on board a Kosmos-3M space rocket.

The launch took place on July 20, 1972, 6:10 p.m. from 132/2.

For more information about the launch, click the button.

Launch to space Kosmos-3M | Strela-1M 25-32
Kosmos-3M | Strela-1M 25-32

Agency: N/A

Status: Launch Successful

Launch date: July 20, 1972, 6:10 p.m. UTC

Rocket: Kosmos-3M

Launch pad: 132/2

Location: Plesetsk Cosmodrome, Russian Federation

...

Latest news about this satellite

There are no fresh news available about this satellite. Check back as we update our databases every day.


Newsletter sign-up

Weekly statistics, charts and insights to help you stay on top of the space industry.